Flag for U.S.A. Weather past 2 weeks in Vallejo, California, U.S.A.

Now
60 °F

Clear.


Feels Like: 60 °F
Forecast: 59 / 73 °F
Wind: 13 mph from West

Location: Napa County Airport

Current Time: Aug 3, 2015 at 1:59:59 AM

Latest Report: Aug 3, 2015 at 12:54 AM


Visibility: 10 mi

Pressure: 29.88 "Hg

Humidity: 86%

Dew point: 56 °F

Location of VallejoLocation

Historic Weather in Vallejo — Graph

°F

Vallejo temperature yesterday

Maximum temperature yesterday: 80 °F (at 4:54 PM)
Minimum temperature yesterday: 59 °F (at 11:54 PM)
Average temperature yesterday: 67 °F

Past Weeks' High & Low Weather Summary

 TemperatureHumidityPressure
High94 °F (Jul 28, 2:54 PM)100% (Jul 24, 4:54 AM)30.09 "Hg (Jul 24, 4:54 AM)
Low48 °F (Jul 24, 6:02 AM)17% (Jul 28, 1:54 PM)29.78 "Hg (Jul 21, 5:54 PM)
Average67 °F71%29.92 "Hg
* Reported Jul 19 12:54 AM — Aug 3 12:54 AM, Vallejo, Weather by CustomWeather, © 2015

Note: Actual official high and low records may vary slightly from our data, if they occured in-between our weather recording intervals... More about our weather records

Advertising

Vallejo weather history for previous 24 hours

 ConditionsComfort  
Time TempWeatherWind HumidityBarometerVisibility
12:54 AM
Mon, Aug 3
60 °FClear.13 mph86%29.88 "Hg10 mi
11:54 PM
Sun, Aug 2
59 °FClear.7 mph90%29.88 "Hg10 mi
10:54 PM61 °FClear.14 mph83%29.88 "Hg10 mi
9:54 PM62 °FClear.8 mph80%29.87 "Hg10 mi
8:54 PM63 °FSunny.12 mph81%29.85 "Hg10 mi
7:54 PM67 °FSunny.18 mph68%29.84 "Hg10 mi
6:54 PM71 °FSunny.14 mph59%29.84 "Hg10 mi
5:54 PM76 °FSunny.18 mph48%29.84 "Hg10 mi
4:54 PM80 °FScattered clouds.15 mph42%29.85 "Hg10 mi
3:54 PM78 °FSunny.15 mph52%29.85 "Hg10 mi
2:54 PM78 °FSunny.17 mph52%29.88 "Hg10 mi
1:54 PM76 °FSunny.13 mph58%29.90 "Hg10 mi
12:54 PM77 °FScattered clouds.14 mph52%29.91 "Hg10 mi
11:54 AM74 °FSunny.10 mph57%29.93 "Hg10 mi
10:54 AM69 °FPartly sunny.14 mph68%29.94 "Hg10 mi
10:03 AM66 °FOvercast.13 mph75%29.97 "Hg10 mi
9:54 AM65 °FOvercast.14 mph81%29.94 "Hg10 mi
8:54 AM64 °FOvercast.12 mph84%29.95 "Hg10 mi
7:54 AM62 °FOvercast.14 mph86%29.93 "Hg10 mi
6:54 AM61 °FOvercast.14 mph90%29.92 "Hg10 mi
5:54 AM62 °FOvercast.12 mph86%29.90 "Hg10 mi
4:54 AM62 °FOvercast.13 mph86%29.90 "Hg10 mi
3:54 AM62 °FOvercast.14 mph90%29.91 "Hg10 mi
2:54 AM63 °FOvercast.14 mph87%29.90 "Hg10 mi
1:54 AM62 °FPassing clouds.13 mph90%29.91 "Hg10 mi
Weather by CustomWeather, © 2015

See weather overviewHow to use our weather pages